Wind_Speed
13 14 14 14 15 15 16 17 18 18 19 18 17 16 15 14 13 11 10 9 8 6 5 3 4 5 8 11 13 15 17 17 16 15 14 12 12 11 11 11 11 10 9
11 12 12 12 13 13 14 15 16 17 18 18 18 17 16 15 14 13 12 11 10 8 7 5 4 3 4 6 8 11 14 15 15 15 14 13 13 12 12 12 12 11 10
9 10 11 11 11 11 12 13 14 15 16 17 17 17 17 16 15 14 13 12 11 10 9 7 5 4 3 3 4 6 7 8 10 11 11 11 11 11 11 11 11 10 9
8 8 9 10 9 9 9 10 11 12 13 14 15 16 16 16 15 14 14 13 12 11 10 8 7 5 4 4 3 3 3 4 5 5 6 7 7 7 8 8 9 8 9
7 7 8 8 8 8 8 8 8 9 10 11 12 13 14 14 14 14 14 14 13 12 11 10 9 7 5 5 4 4 4 4 4 3 2 3 4 4 5 5 5 6 6
6 7 7 7 7 7 7 6 6 6 6 7 8 9 10 11 12 12 13 13 13 13 13 12 11 9 8 6 6 5 5 5 4 3 2 1 0 1 2 1 2 2 2
6 6 7 7 7 7 6 6 5 4 3 4 4 5 6 7 8 8 9 11 11 12 13 13 12 11 10 8 7 6 6 5 4 4 4 3 2 1 2 2 2 2 1
7 7 7 8 8 8 8 7 6 5 4 4 3 3 3 3 4 5 6 7 8 9 10 11 11 12 11 10 8 7 5 5 5 4 4 3 3 3 3 3 3 2 2
9 9 9 9 9 10 10 10 9 8 7 6 5 4 3 3 3 3 3 3 4 5 6 7 8 9 10 10 9 7 6 5 4 4 4 4 4 3 3 3 3 3 2
10 11 12 12 12 12 12 12 11 11 10 9 8 7 6 5 4 4 3 3 2 2 2 3 4 6 7 7 7 7 6 5 4 4 4 4 3 3 3 3 2 2 2
10 12 13 14 15 15 15 15 14 13 13 12 12 11 10 8 7 7 6 5 4 4 3 1 0 1 2 3 4 4 4 4 3 3 3 3 2 2 2 2 2 2 2
13 13 14 15 17 18 19 18 18 17 16 16 15 14 13 12 11 10 9 8 8 7 6 5 4 3 2 1 0 1 1 1 1 1 1 2 2 2 1 1 0 0 1
17 17 18 18 19 19 20 21 21 20 20 19 18 17 16 15 14 13 12 11 11 10 9 8 8 7 6 6 5 4 3 2 2 2 1 2 2 3 3 2 2 2 2
21 22 22 23 23 23 23 23 23 23 23 22 22 21 20 18 17 16 15 14 13 12 12 11 10 10 10 9 8 8 7 6 5 5 4 4 4 5 5 5 5 5 5
25 25 26 26 27 27 27 26 26 26 26 25 25 24 23 21 20 19 17 16 15 14 14 14 13 13 12 12 11 11 11 10 9 8 7 7 7 7 8 8 8 8 8
29 30 30 31 31 31 31 31 31 32 30 29 28 27 26 25 24 22 21 19 18 16 16 16 15 15 14 14 14 13 13 13 13 12 11 10 10 10 10 10 10 10 11
35 35 36 36 36 36 35 35 35 35 35 34 33 32 31 29 28 26 24 22 20 19 18 18 17 17 17 16 15 15 15 15 16 15 14 13 13 12 13 13 13 13 13
42 42 42 42 42 41 41 40 39 37 37 36 36 35 34 33 32 31 29 26 24 22 21 21 20 19 19 18 17 17 17 17 17 17 17 16 15 15 15 15 15 15 15
45 47 47 48 48 47 46 45 45 44 42 40 39 38 37 36 34 33 31 28 26 24 23 22 22 22 21 21 20 19 19 18 19 19 19 19 18 18 18 18 18 18 17
45 48 50 52 53 52 51 51 50 49 47 44 42 41 39 38 37 35 34 31 28 26 25 24 24 24 24 24 23 22 21 20 20 20 21 21 21 21 20 20 20 20 20
44 46 49 52 53 55 54 54 54 53 52 50 46 43 41 39 36 35 32 31 29 27 26 25 25 25 24 25 25 25 25 23 22 22 23 24 24 23 23 22 22 22 22
43 46 48 50 52 53 54 55 55 55 54 53 51 48 45 42 39 35 33 31 29 29 29 27 26 25 25 24 24 24 25 25 25 25 25 25 25 24 24 24 24 24 24
40 42 45 48 50 51 52 53 55 55 54 54 53 52 50 46 41 39 35 33 31 31 30 29 28 26 25 25 25 24 24 26 26 26 26 26 26 26 25 26 26 26 26
35 38 40 42 45 47 48 49 50 51 51 52 51 51 50 48 44 40 38 35 34 32 31 31 30 28 27 27 26 25 25 26 28 28 28 28 28 28 27 27 27 27 27
30 31 32 33 35 36 38 40 42 44 46 47 47 47 47 45 43 41 38 37 36 35 34 33 31 30 28 27 27 27 27 28 30 30 30 29 30 29 29 28 28 28 28
22 22 22 23 23 24 27 29 33 36 38 41 42 43 43 42 41 40 38 37 37 36 35 34 33 31 30 29 28 28 28 28 31 31 31 31 31 31 30 30 29 29 28
Wind_Direction
96 92 87 84 81 81 81 81 81 82 82 84 85 87 88 90 90 90 89 89 92 100 109 131 168 192 207 216 219 221 223 227 230 237 241 247 255 262 265 268 278 282 287
104 100 96 92 88 85 83 82 82 82 81 82 83 84 85 86 86 85 85 84 85 88 94 100 111 131 172 200 213 220 225 230 233 240 243 251 257 262 267 270 275 275 276
117 112 108 105 100 94 89 85 82 82 81 79 80 81 82 83 84 83 83 83 82 81 83 89 94 96 109 147 183 204 216 223 231 240 245 252 258 264 269 273 271 272 273
130 125 121 119 115 109 101 93 87 85 83 81 80 79 79 80 81 81 81 81 81 79 76 78 82 87 95 107 126 151 178 194 208 226 236 246 257 264 271 275 274 276 275
152 144 139 136 134 129 120 111 102 93 88 85 84 81 79 79 79 79 79 79 80 78 75 72 73 75 81 94 109 125 137 151 167 179 203 230 248 261 276 279 282 281 278
179 170 164 160 157 154 150 141 129 116 104 98 92 87 83 80 79 78 78 78 78 77 75 74 74 74 77 87 100 116 124 127 133 136 132 145 210 299 310 281 295 290 283
204 197 191 190 189 186 184 182 177 167 151 134 122 109 98 91 87 83 80 78 76 75 74 74 73 75 78 84 94 106 115 120 125 123 117 108 97 71 74 71 65 56 65
221 219 214 214 216 217 217 215 216 219 216 204 185 166 145 127 112 101 92 85 79 75 72 71 70 71 74 81 89 97 104 110 114 116 112 102 89 89 84 77 69 70 74
236 235 232 230 231 234 234 234 234 237 237 233 227 216 204 186 169 152 133 111 94 85 77 71 67 68 70 74 80 88 94 102 111 114 112 107 99 92 86 76 70 72 77
248 246 244 242 241 242 243 243 243 243 244 244 243 239 231 221 209 200 192 181 165 137 102 82 71 66 65 67 71 78 86 93 102 108 115 119 114 103 92 84 80 74 74
260 258 255 252 249 248 248 248 248 248 248 249 250 250 246 240 232 222 217 215 214 214 217 215 179 80 68 65 65 71 79 87 94 104 118 128 136 130 107 93 94 89 89
263 262 261 259 256 253 252 251 250 250 250 250 252 253 254 251 246 238 232 230 230 231 235 241 245 243 235 232 190 70 77 91 98 109 137 160 176 185 178 156 138 131 136
262 260 259 258 256 254 253 252 250 250 249 249 250 251 252 253 253 249 244 240 239 239 240 242 246 248 245 242 241 243 244 244 238 232 230 228 227 230 230 227 235 244 238
265 261 258 258 255 253 252 251 250 249 248 248 248 248 249 250 252 252 249 246 243 243 243 243 244 247 249 248 244 242 242 243 244 243 242 242 240 240 240 239 242 247 249
265 263 259 257 254 254 253 250 249 249 248 247 246 246 246 246 247 248 249 248 247 246 247 247 247 247 249 250 248 244 242 241 244 246 245 245 246 245 244 244 245 249 251
261 260 259 257 254 251 251 251 249 248 247 246 245 244 243 244 244 244 245 246 247 248 249 249 250 251 252 252 249 246 243 241 242 245 246 247 247 248 247 246 247 249 250
261 260 259 258 255 252 251 252 251 249 247 245 245 244 243 242 242 243 244 244 245 246 248 251 254 256 256 256 254 251 246 242 242 244 245 246 248 249 248 246 246 248 250
260 259 258 257 256 255 252 251 251 251 249 246 245 245 244 243 242 243 242 243 244 245 247 251 255 258 260 259 257 255 251 245 244 245 246 246 247 248 249 247 246 247 250
262 260 258 257 256 255 253 251 250 250 250 248 247 244 243 242 243 243 241 242 243 246 250 253 257 259 261 263 261 259 255 250 247 247 247 248 248 249 250 249 247 248 249
267 264 262 260 258 256 255 254 251 250 249 248 247 245 245 244 243 244 243 241 244 248 250 254 258 260 261 262 261 261 259 256 252 251 250 251 251 251 251 251 249 249 249
273 270 267 265 263 261 258 256 254 252 250 249 248 247 246 245 244 243 244 244 246 249 253 257 261 264 265 262 260 259 258 257 255 254 253 253 254 253 252 253 252 251 250
275 273 271 268 266 264 262 259 257 254 252 251 250 249 247 248 250 250 249 249 250 251 254 259 262 264 266 262 261 260 257 255 255 254 254 255 256 255 255 254 254 253 252
281 278 275 272 269 266 263 260 257 256 254 253 251 250 249 250 251 250 251 252 254 254 255 259 263 265 264 265 264 260 257 255 255 255 255 255 256 257 258 257 257 255 254
287 284 281 277 272 268 265 261 257 255 255 254 252 251 250 251 252 252 252 253 256 258 258 260 263 264 265 267 266 264 257 254 255 256 257 257 257 257 259 258 257 256 255
296 291 286 282 276 270 264 260 256 253 252 252 251 251 250 251 253 254 254 255 257 259 259 261 263 266 266 265 266 264 261 255 253 253 255 258 259 258 257 257 255 255 256
311 305 297 289 283 274 265 259 253 251 249 247 247 249 250 250 251 252 254 255 256 258 259 258 260 262 262 262 262 262 263 260 254 254 253 254 256 257 256 255 255 256 256
Height
5924 5923 5923 5923 5922 5922 5921 5920 5919 5918 5916 5915 5914 5913 5912 5912 5911 5911 5911 5910 5910 5910 5910 5910 5910 5910 5910 5911 5912 5913 5915 5916 5917 5918 5919 5920 5921 5921 5921 5922 5922 5922 5922
5925 5924 5924 5924 5924 5923 5923 5922 5921 5920 5919 5917 5916 5915 5914 5913 5913 5912 5912 5911 5911 5910 5910 5910 5910 5910 5910 5910 5911 5912 5913 5915 5916 5917 5918 5918 5919 5919 5920 5920 5920 5920 5920
5925 5925 5925 5925 5925 5925 5924 5924 5923 5922 5921 5920 5918 5917 5916 5915 5914 5914 5913 5912 5912 5911 5911 5911 5911 5910 5910 5910 5911 5911 5912 5913 5914 5915 5916 5917 5917 5918 5918 5918 5918 5918 5919
5925 5925 5925 5925 5925 5925 5925 5925 5924 5923 5923 5922 5921 5919 5918 5917 5916 5915 5914 5914 5913 5912 5912 5911 5911 5911 5911 5911 5911 5911 5912 5913 5914 5915 5915 5915 5916 5916 5916 5916 5916 5917 5917
5925 5925 5925 5925 5925 5925 5925 5925 5925 5925 5924 5923 5922 5921 5920 5919 5918 5917 5916 5915 5914 5914 5913 5912 5912 5911 5911 5911 5911 5912 5912 5913 5914 5914 5915 5915 5915 5915 5915 5915 5915 5915 5915
5925 5925 5925 5925 5925 5925 5925 5925 5925 5925 5924 5924 5923 5922 5921 5921 5920 5919 5918 5917 5916 5915 5915 5914 5913 5912 5912 5912 5912 5912 5912 5913 5913 5914 5914 5914 5914 5914 5914 5914 5914 5914 5914
5925 5925 5924 5924 5924 5924 5924 5924 5924 5924 5924 5924 5923 5923 5922 5921 5920 5920 5919 5919 5918 5917 5916 5915 5914 5914 5913 5913 5913 5913 5913 5913 5914 5914 5914 5914 5914 5914 5914 5914 5914 5914 5914
5925 5924 5924 5924 5923 5923 5923 5923 5923 5923 5923 5923 5923 5922 5922 5921 5921 5920 5920 5919 5919 5918 5917 5917 5916 5915 5914 5914 5913 5913 5914 5914 5914 5914 5914 5914 5914 5914 5915 5914 5914 5914 5914
5924 5923 5923 5922 5922 5922 5922 5922 5922 5922 5921 5921 5921 5921 5921 5920 5920 5919 5919 5919 5919 5918 5918 5917 5917 5916 5916 5915 5915 5914 5915 5915 5915 5915 5915 5915 5915 5915 5915 5915 5915 5914 5914
5923 5922 5922 5921 5921 5921 5920 5920 5920 5920 5919 5919 5919 5919 5919 5919 5919 5918 5918 5918 5918 5918 5918 5917 5917 5917 5917 5916 5916 5916 5915 5915 5915 5915 5915 5915 5915 5916 5915 5915 5915 5915 5915
5922 5921 5920 5920 5919 5919 5918 5918 5918 5917 5917 5917 5917 5917 5917 5917 5917 5917 5917 5917 5917 5917 5917 5917 5917 5917 5917 5916 5916 5916 5916 5916 5915 5915 5915 5915 5916 5916 5916 5916 5916 5916 5915
5919 5919 5918 5917 5917 5916 5915 5915 5915 5915 5915 5914 5915 5914 5914 5914 5914 5914 5915 5915 5915 5915 5915 5915 5916 5916 5916 5916 5916 5916 5916 5916 5916 5916 5916 5916 5916 5916 5916 5916 5916 5916 5916
5916 5916 5915 5914 5913 5912 5912 5911 5911 5911 5911 5911 5911 5911 5911 5911 5911 5911 5912 5912 5912 5913 5913 5913 5914 5914 5914 5914 5915 5915 5915 5915 5915 5915 5915 5915 5915 5915 5915 5915 5915 5915 5915
5911 5911 5910 5909 5909 5908 5907 5907 5906 5906 5906 5907 5907 5907 5907 5908 5908 5908 5909 5909 5909 5910 5910 5911 5911 5911 5912 5912 5913 5913 5914 5914 5914 5914 5914 5914 5915 5915 5915 5915 5915 5915 5915
5906 5905 5904 5904 5903 5902 5902 5901 5901 5901 5901 5901 5902 5902 5903 5903 5904 5904 5905 5905 5906 5906 5907 5907 5908 5908 5909 5909 5910 5910 5911 5911 5912 5912 5913 5913 5913 5913 5913 5913 5913 5913 5914
5899 5898 5898 5897 5896 5895 5895 5895 5894 5894 5895 5895 5896 5896 5897 5898 5898 5899 5900 5900 5901 5902 5903 5903 5904 5904 5905 5906 5907 5907 5908 5908 5909 5909 5910 5910 5911 5911 5911 5912 5912 5912 5912
5891 5890 5889 5889 5888 5888 5888 5887 5887 5887 5887 5888 5888 5889 5890 5891 5892 5893 5894 5895 5896 5897 5898 5899 5900 5900 5901 5902 5903 5904 5904 5905 5905 5906 5907 5907 5908 5908 5909 5909 5909 5909 5909
5882 5881 5880 5879 5879 5879 5879 5879 5879 5879 5879 5880 5881 5881 5882 5884 5885 5886 5887 5889 5890 5891 5892 5894 5895 5896 5897 5898 5899 5899 5900 5901 5901 5902 5903 5904 5904 5905 5905 5906 5906 5906 5907
5871 5870 5869 5868 5868 5868 5869 5870 5870 5870 5871 5872 5872 5873 5874 5875 5877 5878 5880 5882 5884 5885 5887 5888 5890 5891 5892 5893 5893 5894 5895 5896 5897 5898 5899 5900 5900 5901 5901 5902 5902 5903 5903
5859 5858 5857 5857 5857 5857 5858 5858 5859 5860 5861 5862 5864 5865 5866 5867 5869 5870 5873 5875 5877 5879 5880 5882 5883 5884 5885 5887 5888 5889 5890 5891 5892 5893 5894 5895 5896 5896 5897 5898 5898 5899 5899
5847 5845 5844 5843 5843 5843 5844 5846 5847 5849 5850 5852 5854 5856 5857 5859 5860 5862 5865 5867 5870 5872 5874 5875 5876 5878 5879 5880 5881 5883 5884 5885 5886 5887 5888 5889 5890 5891 5892 5893 5893 5894 5895
5835 5833 5831 5829 5829 5829 5829 5831 5833 5835 5838 5840 5843 5845 5848 5850 5852 5855 5858 5860 5862 5865 5867 5868 5869 5870 5871 5873 5874 5876 5877 5879 5880 5881 5882 5884 5885 5886 5886 5887 5888 5889 5890
5823 5820 5817 5815 5814 5814 5815 5817 5819 5822 5825 5828 5831 5834 5837 5840 5844 5847 5850 5852 5855 5857 5859 5861 5862 5863 5865 5866 5868 5869 5870 5872 5873 5874 5876 5877 5879 5880 5881 5881 5882 5884 5884
5811 5808 5804 5801 5799 5799 5800 5802 5805 5808 5812 5815 5819 5823 5827 5830 5834 5837 5841 5844 5846 5849 5851 5853 5855 5857 5858 5859 5860 5862 5863 5865 5866 5868 5869 5870 5872 5873 5874 5875 5876 5877 5878
5801 5797 5793 5789 5787 5786 5786 5788 5791 5795 5799 5803 5808 5812 5816 5820 5824 5828 5831 5834 5838 5840 5843 5845 5847 5849 5851 5852 5853 5854 5856 5857 5859 5861 5862 5863 5864 5865 5867 5868 5869 5871 5872
5795 5790 5785 5781 5779 5777 5777 5778 5780 5784 5788 5792 5796 5801 5806 5810 5814 5819 5822 5826 5829 5832 5834 5837 5839 5842 5844 5845 5846 5848 5849 5850 5851 5853 5854 5855 5856 5858 5859 5861 5862 5864 5865